Location: Hall+in+Tirol
(47.2830°N, 11.5170°E)
Time: 20:04:34
(UTC+01:00)

Daily predictions for brighter satellites

Satellite Brightness Start Highest point End
(mag) Time Altitude Azimuth Time Altitude Azimuth Time Altitude Azimuth
Cosmos 1818 3.6 18:16:42 10° SSW 18:22:06 72° ESE 18:27:34 10° NE
Meteor 1-19 Rocket 4.5 18:17:28 10° N 18:22:58 48° ENE 18:28:32 10° SSE
METEOR-M 4.2 18:18:40 10° SSE 18:23:53 59° ENE 18:29:09 10° N
ATLAS 2AS CENTAUR R/B 4.5 18:19:40 10° NW 18:26:06 25° N 18:32:28 10° NE
Cosmos 1570 Rocket 4.4 18:21:32 10° NNW 18:26:32 43° ENE 18:31:30 10° SE
Cosmos 1536 Rocket 3.6 18:22:14 10° N 18:26:43 76° E 18:31:12 10° SSE
Nadezhda 1 Rocket 4.4 18:21:17 10° NNW 18:27:21 71° W 18:33:22 10° S
Cosmos 1140 Rocket 3.9 18:22:56 10° S 18:27:42 40° ESE 18:32:30 10° NE
Meteor 1-28 Rocket 3.2 18:25:19 10° NNE 18:29:08 66° E 18:32:55 10° S
USA 215 3.7 18:23:18 10° NE 18:29:42 60° NNW 18:36:06 10° WSW
TSX-5 3.4 18:27:17 10° SSW 18:30:22 53° ESE 18:33:39 10° NE
Genesis I 3.2 18:29:41 10° NNW 18:33:38 67° NE 18:37:32 10° SE
Gbstr 26 Del rocket 3.6 18:32:32 10° SSW 18:35:57 31° SE 18:39:07 11° E
Cosmos 2237 Rocket 3.5 18:31:59 10° N 18:36:24 22° NE 18:40:44 10° E
Cosmos 1484 Rocket 4.5 18:33:40 10° SSW 18:37:23 39° W 18:41:04 10° NNW
COSMOS 2428 2.9 18:31:56 10° NNW 18:37:30 50° ENE 18:43:01 10° SE
Cosmos 2237 4.3 18:31:51 10° NNW 18:37:35 62° ENE 18:43:14 10° SE
Abrixas rocket 4.3 18:38:07 10° S 18:40:05 15° SE 18:41:52 11° ESE
Meteor 2-4 Rocket 3.9 18:36:49 10° N 18:42:13 49° ENE 18:47:27 10° SSE
Meteor 1-13 Rocket 4.2 18:36:42 10° N 18:42:17 76° ENE 18:47:55 10° SSE
FREGAT/IRIS 2.6 18:41:39 10° SSE 18:44:42 62° ENE 18:47:47 10° N
DMSP B5D1-3 4.5 18:39:56 10° NNE 18:45:06 80° ESE 18:50:16 10° SSW
Cosmos 1633 2.5 18:44:58 10° S 18:48:38 67° E 18:52:18 10° NNE
Spot 2 Rocket 3.9 18:44:02 10° SE 18:48:46 42° ENE 18:53:33 10° N
Cosmos 2360 Rocket 2.6 18:44:54 10° NNW 18:50:33 69° WSW 18:56:10 10° SSE
Cosmos 2219 Rocket 2.7 18:45:52 10° NNW 18:51:05 38° NE 18:56:18 10° ESE
Cosmos 2181 Rocket 4.0 18:46:14 10° N 18:52:31 83° E 18:58:52 10° S
SJ-6B 2.7 18:49:06 10° SSE 18:53:04 79° ENE 18:56:59 10° N
Cosmos 1238 Rocket 2.1 18:51:34 10° N 18:54:34 83° W 18:57:32 10° S
Cosmos 1300 Rocket 3.5 18:51:25 10° S 18:55:49 70° E 19:00:15 10° NNE
Cosmos 2208 Rocket 4.1 18:50:28 10° NNW 18:55:56 69° ENE 19:01:19 10° SSE
Cosmos 2219 3.6 18:53:40 10° S 18:58:59 40° ESE 19:04:19 10° NE
Okean 2 4.2 18:56:18 10° N 19:00:02 31° ENE 19:03:46 10° SE
Cosmos 405 Rocket 3.9 18:56:43 10° NNE 19:00:09 25° ENE 19:02:22 16° ESE
Helios 1A 3.9 18:57:08 11° ESE 19:00:24 28° ENE 19:03:57 10° N
COSMO-SKYMED 1 3.7 18:57:19 10° N 19:01:30 47° WNW 19:05:40 10° SW
Cosmos 1850 Rocket 4.2 18:57:06 10° S 19:02:14 52° ESE 19:07:25 10° NNE
Helios 1B rocket 3.8 18:59:38 10° NE 19:02:38 19° E 19:05:37 10° SE
Cosmos 2227 Rocket 4.0 19:00:28 10° SE 19:01:19 12° ESE 19:01:19 12° ESE
Envisat 4.2 19:03:21 17° E 19:05:25 22° ENE 19:09:18 10° NNE
CZ-2D R/B 3.8 19:02:52 10° SE 19:06:22 36° ENE 19:09:54 10° N
Cosmos 1709 Rocket 4.1 19:00:20 10° SSW 19:06:32 80° W 19:12:43 10° N
Cosmos 2074 Rocket 4.2 19:01:30 10° SSE 19:07:27 49° E 19:13:29 10° NNE
Resurs 01 Rocket 1.6 19:03:27 10° SSE 19:07:47 60° ENE 19:12:08 10° N
H-2A R/B 2.9 19:04:33 10° SSE 19:08:09 49° ENE 19:11:48 10° N
Cosmos 1954 Rocket 4.2 19:02:58 10° SSW 19:08:10 74° WNW 19:13:26 10° NNE
SL-16 R/B 3.7 19:07:02 10° N 19:11:06 20° NE 19:13:00 17° ENE
Cosmos 2184 Rocket 4.1 19:06:22 10° SSE 19:12:24 51° E 19:18:26 10° NNE
Resurs 1-3 3.5 19:16:58 10° SSE 19:21:20 69° ENE 19:25:43 10° N
Cosmos 1939 Rocket 4.4 19:22:45 19° NE 19:22:45 19° NE 19:24:55 10° NNE
Cosmos 1536 2.7 19:18:02 10° S 19:22:01 84° E 19:26:02 10° N
Meteor 1-11 Rocket 3.9 19:17:09 10° SSW 19:22:59 81° WNW 19:28:59 10° N
ATLAS CENTAUR R/B 3.9 19:24:08 10° SSE 19:24:08 10° SSE 19:24:08 10° SSE
Nadezhda 3 Rocket 4.3 19:21:35 10° N 19:27:26 43° ENE 19:32:14 15° SE
SL-08 ROCKET BODY 4.4 19:22:26 10° S 19:28:36 77° E 19:34:49 10° NNE
Cosmos 2333 Rocket 2.3 19:26:17 10° NNW 19:32:00 61° ENE 19:35:37 23° SE
Spot 1 3.9 19:30:29 19° SSE 19:33:17 62° ENE 19:37:26 10° N
Okean 1 Rocket 3.6 19:29:43 10° SSW 19:34:09 63° W 19:38:38 10° N
HJ-1C 4.4 19:31:12 10° S 19:34:27 47° W 19:37:44 10° NNW
BREEZE-M DEB (TANK) 3.7 19:31:43 10° WNW 19:34:48 63° SSW 19:39:33 21° SE
Cosmos 1892 Rocket 3.5 19:31:01 10° N 19:35:18 56° ENE 19:37:44 24° SSE
Cosmos 1980 3.8 19:30:21 10° NNW 19:35:54 53° ENE 19:38:32 29° ESE
Cosmos 371 Rocket 4.4 19:33:43 10° N 19:37:48 26° NE 19:37:48 26° NE
Cosmos 2285 Rocket 4.0 19:32:44 10° NNW 19:39:14 88° WSW 19:45:39 10° SSE
ALOS 3.1 19:35:56 10° S 19:40:29 52° W 19:45:04 10° NNW
Cosmos 2154 Rocket 4.2 19:35:42 10° SSE 19:41:42 47° E 19:47:43 10° NNE
NOSS 0 Rocket 3.8 19:35:43 10° NNW 19:41:54 74° ENE 19:45:49 23° SE
Cosmos 1025 Rocket 3.4 19:38:38 10° NNW 19:43:00 65° W 19:47:21 10° S
Cosmos 841 Rocket 4.1 19:38:48 10° N 19:43:31 35° ENE 19:44:00 34° ENE
FENGYUN 3A 4.4 19:40:54 10° S 19:46:11 54° W 19:51:30 10° NNW
GEOS 3 Rocket 3.6 19:47:55 25° NE 19:51:00 64° SE 19:56:14 10° SSW
SAR-Lupe-1 4.1 19:52:48 41° S 19:53:56 76° WSW 19:57:32 10° NNW
Cosmos 1741 Rocket 4.4 19:49:17 10° SSW 19:54:27 63° WNW 19:59:39 10° NNE
SAR-Lupe-4 3.9 19:52:42 26° S 19:54:35 64° WSW 19:58:09 10° NNW
Cosmos 1763 Rocket 3.6 19:50:27 10° NNW 19:55:28 51° ENE 19:56:06 48° E
Meteor 1-5 Rocket 4.4 19:53:27 10° SSW 19:59:25 78° WNW 20:05:19 10° N
BREEZE-M DEB (TANK) 4.1 19:57:24 10° SW 19:58:50 21° SSW 19:58:50 21° SSW
USA 229 DEB 4.2 19:54:19 10° NW 20:01:18 60° WSW 20:07:19 15° SSE
USA 229 4.2 19:54:24 10° NW 20:01:24 60° WSW 20:07:21 15° SSE
USA 186 3.4 20:03:52 27° NNW 20:03:52 27° NNW 20:05:19 10° NNW
Cosmos 1544 Rocket 3.6 19:58:21 10° S 20:03:19 59° NE 20:06:59 10° NNE
USA 215 4.2 20:08:31 22° NE 20:12:05 39° N 20:18:01 10° WNW
Meteor 1-12 Rocket 4.2 20:07:04 10° S 20:12:57 63° E 20:18:48 10° NNE
NOSS 3-1 (A) 4.0 20:06:39 10° NW 20:14:05 72° NE 20:16:52 44° ESE
Cosmos 962 Rocket 4.4 20:08:04 10° S 20:14:06 61° E 20:20:10 10° NNE
Abrixas rocket 4.3 20:13:08 10° WSW 20:14:38 24° SW 20:14:38 24° SW
ATLAS 2AS CENTAUR R/B 3.7 20:12:06 10° NW 20:19:35 38° NNE 20:21:31 33° ENE
Cosmos 2237 Rocket 2.2 20:15:26 10° NNW 20:21:11 81° WSW 20:22:36 52° SSE
Gbstr 26 Del rocket 3.6 20:18:51 10° W 20:21:43 47° WNW 20:21:43 47° WNW
Meteor 2-8 Rocket 4.3 20:17:37 10° N 20:23:42 74° E 20:24:35 63° SE
Cosmos 1066 Rocket 4.0 20:18:06 10° N 20:23:49 80° ENE 20:24:22 71° SE
NOSS 3-1 (C) 4.0 20:25:12 10° NW 20:32:41 80° SW 20:35:32 45° SSE
Cosmos 2219 Rocket 3.4 20:29:53 10° NW 20:35:03 39° WSW 20:38:13 21° SSW
SPOT 5 4.5 20:38:45 26° NNE 20:38:45 26° NNE 20:41:09 10° N
Helios 1B rocket 3.5 20:34:12 10° N 20:38:10 44° WNW 20:42:06 10° SW
USA 32 4.2 20:38:18 10° N 20:43:31 69° W 20:43:33 69° W
ERS-1 Rocket 3.5 20:45:15 53° NNW 20:45:15 53° NNW 20:49:07 10° NNW
Envisat 3.4 20:43:32 55° SW 20:44:04 58° W 20:49:05 10° NNW
Resurs 01 Rocket 4.5 20:41:59 10° SW 20:44:39 16° W 20:47:20 10° NW
Cosmos 2227 Rocket 3.5 20:40:49 10° SSW 20:43:21 28° SSW 20:43:21 28° SSW
SL-16 R/B 2.6 20:50:22 10° NNW 20:54:55 58° NNW 20:54:55 58° NNW
Cosmos 2333 Rocket 4.1 21:11:19 10° NW 21:15:50 24° WSW 21:17:42 20° SW
H-2A R/B 4.1 21:20:00 21° N 21:20:00 21° N 21:21:48 10° N
USA 215 4.3 21:55:51 38° NNW 21:55:51 38° NNW 22:00:25 10° NW
ATLAS 2AS CENTAUR R/B 3.7 22:03:21 10° NW 22:08:57 49° NW 22:08:57 49° NW
